NOAA 16 DEB

Satellite information

Favourite Embed

Satellite Type and Status

DEBRISIN ORBIT

Key statistics

Satellite NOAA 16 DEB at a glance.

Uptime

9163

Days in orbit

Revolutions

≈ 14.2

Per day

Orbit

SSO

Sun Synchronous Orbit

Inclination

98.7

Latest

Satellite identification and parameters

Extended collection of information and parameters for NOAA 16 DEB.

Object identification

Identified? True

Debris? True

Object name: NOAA 16 DEB

International designator: 2000-055SS

Object number (NORAD): 42398

Object ID (CCSDS): 42398

Country: UNITED STATES OF AMERICA (US)

Current information (Y/N): Y

RCS size: SMALL

Orbital parameters

Period: 101.716 minutes

Inclination: 98.6578 deg

SMA: 7218.049 km

Apoapsis: 861.681 km

Periapsis: 818.148 km

RAAN: 291.3023 deg

Eccentricy: 0.00301554

Argument of periapsis: 222.405 deg

Mean anomaly: 137.4793 deg

Mean motion: 14.15705732 rev/day

Mean motion (dot): 0.00003089 rev/day2

B* drag term: 0.0015895501 1/REarth

Two-line elements (TLE)

Creation date: Oct. 11, 2025, 10:47 a.m.

Reference frame: TEME

Reference center: EARTH

Epoch: Oct. 11, 2025, 7:21 a.m. UTC

TLE line 0: 0 NOAA 16 DEB

TLE line 1: 1 42398U 00055SS 25284.30661194 .00003089 00000-0 15896-2 0 9998

TLE line 2: 2 42398 98.6578 291.3023 0030155 222.4050 137.4793 14.15705732493904

Live tracking on map

Real-time ground track for satellite NOAA 16 DEB.

In-orbit conjunctions

A list of the most updated potential collisions computed for object NOAA 16 DEB.

Target Orbit TCA Probability of collision Miss distance Type
CZ-6A DEB LEO 2025-09-12 08:21:20 0.0003558649 111.0 (m) DEBRIS
FENGYUN 1C DEB SSO 2025-07-23 14:54:12 0.0001027559 302.0 (m) DEBRIS
SL-16 DEB LEO 2025-05-18 11:45:26 0.0003580026 60.0 (m) DEBRIS
CZ-6A DEB LEO 2025-01-27 06:25:26 0.0001676773 982.0 (m) DEBRIS

Associated space launch

The NOAA K, L and M POES satellites begin the fifth generation of improved environmental monitoring in support of NOAA missions. The instrument payload has significant improvements and additions/deletions. The instrument changes have effected the spacecraft subsystems and data formats.

NOAA 16 DEB was lifted into orbit during the mission ‘Titan II SLV | NOAA 16’, on board a Titan II SLV space rocket.

The launch took place on Sept. 21, 2000, 10:22 a.m. from Space Launch Complex 4W.

For more information about the launch, click the button.

Launch to space Titan II SLV | NOAA 16
Titan II SLV | NOAA 16

Agency: N/A

Status: Launch Successful

Launch date: Sept. 21, 2000, 10:22 a.m. UTC

Rocket: Titan II SLV

Launch pad: Space Launch Complex 4W

Location: Vandenberg SFB, CA, USA

...

Latest news about this satellite

There are no fresh news available about this satellite. Check back as we update our databases every day.


Newsletter sign-up

Weekly statistics, charts and insights to help you stay on top of the space industry.